N3113F KPYM-KPYM

Flight info

Callsign N3113F
Flight time 0h 2m
Altitude 2000
Route PATTERN WORK
Aircraft J3/L-Y/EB2

Departure

Time 2026-04-25 19:24
Airport Plymouth Municipal Airport (KPYM)

Arrival

Time 2026-04-25 19:26
Airport Plymouth Municipal Airport (KPYM)
Time Latitude Longitude Altitude Speed Heading
2026-04-25 19:04 41.90931 -70.73290 145 ft 0 kts 307°
2026-04-25 19:15 41.90935 -70.73294 145 ft 3 kts 350°
2026-04-25 19:15 41.90940 -70.73291 145 ft 2 kts 68°
2026-04-25 19:15 41.90938 -70.73274 145 ft 2 kts 139°
2026-04-25 19:16 41.90928 -70.73261 145 ft 3 kts 126°
2026-04-25 19:16 41.90912 -70.73241 145 ft 4 kts 176°
2026-04-25 19:16 41.90878 -70.73267 145 ft 7 kts 220°
2026-04-25 19:16 41.90834 -70.73314 144 ft 9 kts 236°
2026-04-25 19:17 41.90798 -70.73355 144 ft 6 kts 230°
2026-04-25 19:17 41.90762 -70.73392 145 ft 5 kts 225°
2026-04-25 19:17 41.90728 -70.73434 145 ft 7 kts 223°
2026-04-25 19:17 41.90685 -70.73481 145 ft 6 kts 226°
2026-04-25 19:18 41.90638 -70.73532 143 ft 9 kts 233°
2026-04-25 19:18 41.90596 -70.73577 141 ft 9 kts 227°
2026-04-25 19:18 41.90551 -70.73629 141 ft 8 kts 218°
2026-04-25 19:18 41.90516 -70.73668 140 ft 3 kts 227°
2026-04-25 19:19 41.90503 -70.73710 140 ft 5 kts 228°
2026-04-25 19:19 41.90477 -70.73725 139 ft 1 kts 101°
2026-04-25 19:19 41.90477 -70.73724 139 ft 0 kts 82°
2026-04-25 19:19 41.90478 -70.73721 139 ft 1 kts 80°
2026-04-25 19:20 41.90468 -70.73704 138 ft 3 kts 155°
2026-04-25 19:20 41.90467 -70.73704 138 ft 0 kts 150°
2026-04-25 19:21 41.90465 -70.73702 138 ft 3 kts 147°
2026-04-25 19:22 41.90444 -70.73674 137 ft 3 kts 123°
2026-04-25 19:22 41.90437 -70.73644 137 ft 4 kts 78°
2026-04-25 19:22 41.90444 -70.73629 137 ft 2 kts 40°
2026-04-25 19:23 41.90579 -70.73483 255 ft 38 kts 45°
2026-04-25 19:23 41.91001 -70.72968 812 ft 40 kts 49°
2026-04-25 19:23 41.91234 -70.72697 998 ft 49 kts 36°
2026-04-25 19:24 41.91597 -70.72706 1173 ft 60 kts 342°
2026-04-25 19:24 41.91909 -70.73091 1218 ft 65 kts 313°
2026-04-25 19:24 41.91742 -70.74209 1177 ft 73 kts 220°
2026-04-25 19:25 41.90975 -70.75111 1199 ft 75 kts 220°
2026-04-25 19:25 41.90604 -70.75532 1192 ft 59 kts 216°
2026-04-25 19:25 41.90288 -70.75809 1115 ft 54 kts 194°
2026-04-25 19:26 41.89974 -70.75680 993 ft 44 kts 123°
2026-04-25 19:26 41.89805 -70.75324 879 ft 45 kts 110°
2026-04-25 19:26 41.89674 -70.74959 756 ft 42 kts 98°
2026-04-25 19:26 41.89630 -70.74587 688 ft 37 kts 73°
2026-04-25 19:27 41.89815 -70.74329 524 ft 46 kts 40°
2026-04-25 19:27 41.89980 -70.74154 425 ft 45 kts 50°
2026-04-25 19:27 41.90293 -70.73787 207 ft 45 kts 40°
2026-04-25 19:27 41.90508 -70.73558 140 ft 30 kts 40°
2026-04-25 19:28 41.90613 -70.73443 142 ft 13 kts 37°
2026-04-25 19:28 41.90801 -70.73249 320 ft 40 kts 49°
2026-04-25 19:28 41.91015 -70.72989 594 ft 42 kts 47°
2026-04-25 19:28 41.91231 -70.72732 888 ft 41 kts 44°
2026-04-25 19:29 41.91443 -70.72470 1102 ft 42 kts 47°
2026-04-25 19:29 41.91745 -70.72273 1199 ft 58 kts
2026-04-25 19:29 41.92090 -70.72633 1249 ft 71 kts 309°
2026-04-25 19:29 41.92242 -70.73288 1202 ft 81 kts 264°
2026-04-25 19:30 41.91934 -70.73884 1131 ft 77 kts 215°
2026-04-25 19:30 41.91526 -70.74282 1109 ft 69 kts 212°
2026-04-25 19:30 41.91135 -70.74641 1142 ft 68 kts 213°
2026-04-25 19:30 41.90752 -70.74990 1227 ft 67 kts 211°
2026-04-25 19:31 41.90357 -70.75292 1195 ft 62 kts 190°
2026-04-25 19:31 41.90022 -70.75153 1071 ft 49 kts 121°
2026-04-25 19:31 41.89827 -70.74781 857 ft 47 kts 123°
2026-04-25 19:31 41.89838 -70.74372 568 ft 47 kts 89°
2026-04-25 19:32 41.90053 -70.74071 387 ft 44 kts 49°
2026-04-25 19:32 41.90276 -70.73816 225 ft 42 kts 39°
2026-04-25 19:32 41.90487 -70.73580 139 ft 34 kts 41°
2026-04-25 19:32 41.90593 -70.73469 165 ft 31 kts 43°
2026-04-25 19:33 41.90887 -70.73141 459 ft 47 kts 47°
2026-04-25 19:33 41.91113 -70.72855 675 ft 43 kts 43°
2026-04-25 19:33 41.91336 -70.72621 892 ft 41 kts 45°
2026-04-25 19:33 41.91549 -70.72357 1088 ft 45 kts 42°
2026-04-25 19:34 41.91870 -70.72188 1173 ft 56 kts
2026-04-25 19:34 41.92211 -70.72515 1166 ft 65 kts 314°
2026-04-25 19:34 41.92266 -70.73125 1153 ft 74 kts 251°
2026-04-25 19:34 41.91943 -70.73667 1100 ft 76 kts 217°
2026-04-25 19:35 41.91553 -70.74072 1104 ft 68 kts 213°
2026-04-25 19:35 41.91156 -70.74436 1048 ft 69 kts 210°
2026-04-25 19:35 41.90750 -70.74752 960 ft 65 kts 204°
2026-04-25 19:35 41.90358 -70.75000 861 ft 58 kts 197°
2026-04-25 19:36 41.90021 -70.74943 725 ft 46 kts 133°
2026-04-25 19:36 41.89849 -70.74595 551 ft 42 kts 112°
2026-04-25 19:36 41.89874 -70.74246 475 ft 39 kts 52°
2026-04-25 19:36 41.90113 -70.73999 313 ft 46 kts 48°
2026-04-25 19:37 41.90346 -70.73739 179 ft 41 kts 39°
2026-04-25 19:37 41.90527 -70.73536 139 ft 24 kts 40°
2026-04-25 19:37 41.90610 -70.73445 142 ft 22 kts 39°
2026-04-25 19:37 41.90827 -70.73233 359 ft 43 kts 41°
2026-04-25 19:38 41.91070 -70.72981 621 ft 45 kts 43°
2026-04-25 19:38 41.91306 -70.72732 909 ft 43 kts 43°
2026-04-25 19:38 41.91561 -70.72479 1099 ft 49 kts 30°
2026-04-25 19:38 41.91922 -70.72511 1313 ft 59 kts 345°
2026-04-25 19:39 41.92199 -70.72937 1423 ft 67 kts 310°
2026-04-25 19:39 41.92219 -70.73565 1371 ft 69 kts 238°
2026-04-25 19:39 41.91861 -70.73964 1308 ft 69 kts 213°
2026-04-25 19:39 41.91484 -70.74304 1245 ft 60 kts 211°
2026-04-25 19:40 41.91133 -70.74570 1258 ft 59 kts 201°
2026-04-25 19:40 41.90763 -70.74825 1266 ft 62 kts 204°
2026-04-25 19:40 41.90392 -70.75077 1208 ft 57 kts 198°
2026-04-25 19:40 41.90035 -70.75067 1092 ft 49 kts 137°
2026-04-25 19:41 41.89835 -70.74744 932 ft 42 kts 136°
2026-04-25 19:41 41.89807 -70.74353 641 ft 43 kts 82°
2026-04-25 19:41 41.90038 -70.74079 412 ft 47 kts 66°
2026-04-25 19:41 41.90115 -70.73987 359 ft 45 kts 62°
2026-04-25 19:42 41.90487 -70.73580 140 ft 33 kts 39°
2026-04-25 19:42 41.90602 -70.73458 141 ft 7 kts 13°
2026-04-25 19:42 41.90630 -70.73483 143 ft 4 kts 306°
2026-04-25 19:42 41.90651 -70.73506 143 ft 0 kts
2026-04-25 19:43 41.90670 -70.73497 144 ft 4 kts 34°
2026-04-25 19:43 41.90688 -70.73474 145 ft 4 kts 28°
2026-04-25 19:43 41.90714 -70.73448 145 ft 4 kts 37°
2026-04-25 19:44 41.90734 -70.73425 146 ft 4 kts 39°
2026-04-25 19:44 41.90763 -70.73393 145 ft 6 kts 40°
2026-04-25 19:44 41.90790 -70.73363 145 ft 4 kts 40°
2026-04-25 19:44 41.90813 -70.73348 144 ft 5 kts 314°
2026-04-25 19:45 41.90832 -70.73381 144 ft 2 kts 303°
2026-04-25 19:45 41.90835 -70.73394 144 ft 2 kts 249°
2026-04-25 19:45 41.90826 -70.73399 144 ft 1 kts 143°
2026-04-25 19:45 41.90824 -70.73396 144 ft 0 kts 117°